Terminal Aerodrome Forecast
Issued by NWS Blacksburg, VA

Home | Current Version | Previous Version | Text Only | Print | Product List | Glossary On
Versions: 1 2 3 4 5 6 7 8 9 10 11 12 13 14 15 16 17 18 19 20 21 22 23 24 25 26 27 28 29 30 31 32 33 34 35 36 37 38 39 40 41 42 43 44 45 46 47 48 49 50
000
FTUS41 KRNK 061720
TAFDAN
TAF
KDAN 061720Z 0618/0718 22007KT 5SM -RA SCT027 OVC035
     FM061900 23008KT P6SM VCTS BKN040CB
     FM062000 20010G24KT 4SM -TSRA OVC035CB
     FM062200 25005KT P6SM BKN050
     FM070900 00000KT 4SM BR BKN250
     FM071400 24007KT P6SM SCT050 BKN250=

USA.gov is the U.S. government's official web portal to all federal, state and local government web resources and services.